• In Kazakhstan
  • List of Countries
  • For 7 days
  • Water Temperature
  • Satellite Maps
  • Weather Map
  • News
  • Weather Widgets
  • user-avatar
    Login

    Hourly Weather Kopysno

    Today, 20 February, Wednesday

    Time Temperature Precipitation Wind Pressure Humidity
    00:00 +3°C° 0 mm 4 mps 721 mmHg 81%
    01:00 +3°C° 0 mm 4 mps 721 mmHg 83%
    02:00 +2°C° 0 mm 3 mps 721 mmHg 84%
    03:00 +1°C° 0.4 mm 4 mps 721 mmHg 86%
    04:00 +1°C° 0.4 mm 4 mps 721 mmHg 87%
    05:00 +1°C° 0.4 mm 4 mps 721 mmHg 89%
    06:00 +1°C° 0.2 mm 4 mps 721 mmHg 90%
    07:00 +1°C° 0.2 mm 4 mps 721 mmHg 90%
    08:00 +1°C° 0.2 mm 4 mps 721 mmHg 91%
    09:00 +1°C° 0 mm 5 mps 722 mmHg 88%
    10:00 +1°C° 0 mm 5 mps 722 mmHg 85%
    11:00 +1°C° 0 mm 5 mps 722 mmHg 81%
    12:00 +2°C° 0.1 mm 6 mps 722 mmHg 79%
    13:00 +2°C° 0.1 mm 6 mps 723 mmHg 77%
    14:00 +2°C° 0.1 mm 6 mps 723 mmHg 74%
    15:00 +2°C° 0.1 mm 5 mps 723 mmHg 75%
    16:00 +2°C° 0.1 mm 5 mps 723 mmHg 75%
    17:00 +1°C° 0.1 mm 5 mps 723 mmHg 75%
    18:00 +1°C° 0 mm 5 mps 723 mmHg 77%
    19:00 +1°C° 0 mm 4 mps 724 mmHg 78%
    20:00 0°C° 0 mm 4 mps 724 mmHg 79%
    21:00 0°C° 0 mm 4 mps 724 mmHg 79%
    22:00 0°C° 0 mm 4 mps 725 mmHg 79%
    23:00 0°C° 0 mm 4 mps 725 mmHg 78%

    Tomorrow, 21 February, Thursday

    Time Temperature Precipitation Wind Pressure Humidity
    00:00 0°C° 0 mm 4 mps 725 mmHg 80%
    01:00 0°C° 0 mm 4 mps 725 mmHg 81%
    02:00 0°C° 0 mm 4 mps 726 mmHg 82%
    03:00 0°C° 0 mm 4 mps 726 mmHg 83%
    04:00 +1°C° 0 mm 3 mps 726 mmHg 84%
    05:00 +1°C° 0 mm 3 mps 726 mmHg 85%
    06:00 +1°C° 0 mm 3 mps 726 mmHg 85%
    07:00 +1°C° 0 mm 3 mps 726 mmHg 85%
    08:00 0°C° 0 mm 4 mps 726 mmHg 86%
    09:00 +1°C° 0 mm 4 mps 726 mmHg 82%
    10:00 +3°C° 0 mm 4 mps 726 mmHg 78%
    11:00 +3°C° 0 mm 5 mps 726 mmHg 74%
    12:00 +3°C° 0 mm 5 mps 726 mmHg 72%
    13:00 +5°C° 0 mm 5 mps 725 mmHg 69%
    14:00 +5°C° 0 mm 5 mps 725 mmHg 66%
    15:00 +5°C° 0.2 mm 5 mps 725 mmHg 69%
    16:00 +4°C° 0.2 mm 4 mps 724 mmHg 71%
    17:00 +4°C° 0.2 mm 4 mps 724 mmHg 73%
    18:00 +4°C° 0.7 mm 4 mps 723 mmHg 76%
    19:00 +2°C° 0.7 mm 5 mps 723 mmHg 78%
    20:00 +2°C° 0.7 mm 5 mps 723 mmHg 80%
    21:00 +2°C° 0.5 mm 5 mps 723 mmHg 82%
    22:00 +2°C° 0.5 mm 5 mps 723 mmHg 84%
    23:00 +2°C° 0.5 mm 5 mps 723 mmHg 86%

    Day after tomorrow, 22 February, Friday

    Time Temperature Precipitation Wind Pressure Humidity
    00:00 +2°C° 0.4 mm 5 mps 722 mmHg 87%
    01:00 +2°C° 0.4 mm 5 mps 722 mmHg 88%
    02:00 +2°C° 0.4 mm 5 mps 722 mmHg 89%
    03:00 +2°C° 0.7 mm 5 mps 722 mmHg 91%
    04:00 +2°C° 0.7 mm 5 mps 721 mmHg 92%
    05:00 +2°C° 0.7 mm 5 mps 721 mmHg 93%
    06:00 +2°C° 1.1 mm 5 mps 721 mmHg 93%
    07:00 +2°C° 1.1 mm 5 mps 722 mmHg 93%
    08:00 +2°C° 1.1 mm 5 mps 722 mmHg 94%
    09:00 0°C° 0.8 mm 5 mps 723 mmHg 92%
    10:00 -2°C° 0.8 mm 5 mps 724 mmHg 90%
    11:00 -6°C° 0.8 mm 5 mps 725 mmHg 89%
    12:00 -5°C° 0.1 mm 6 mps 726 mmHg 82%
    13:00 -5°C° 0.1 mm 6 mps 727 mmHg 76%
    14:00 -5°C° 0.1 mm 6 mps 728 mmHg 70%
    15:00 -6°C° 0 mm 6 mps 729 mmHg 69%
    16:00 -6°C° 0 mm 6 mps 729 mmHg 68%
    17:00 -8°C° 0 mm 6 mps 730 mmHg 67%
    18:00 -9°C° 0 mm 6 mps 731 mmHg 67%
    19:00 -8°C° 0 mm 5 mps 731 mmHg 67%
    20:00 -10°C° 0 mm 5 mps 732 mmHg 67%
    21:00 -10°C° 0 mm 5 mps 733 mmHg 65%
    22:00 -10°C° 0 mm 5 mps 733 mmHg 63%
    23:00 -11°C° 0 mm 5 mps 734 mmHg 61%

    23 February, Saturday

    Time Temperature Precipitation Wind Pressure Humidity
    00:00 -10°C° 0 mm 4 mps 734 mmHg 58%
    01:00 -10°C° 0 mm 4 mps 734 mmHg 56%
    02:00 -10°C° 0 mm 4 mps 735 mmHg 54%
    03:00 -10°C° 0 mm 4 mps 735 mmHg 54%
    04:00 -10°C° 0 mm 4 mps 735 mmHg 54%
    05:00 -10°C° 0 mm 4 mps 735 mmHg 53%
    06:00 -10°C° 0 mm 4 mps 735 mmHg 54%
    07:00 -9°C° 0 mm 3 mps 736 mmHg 55%
    08:00 -9°C° 0 mm 3 mps 736 mmHg 56%
    09:00 -8°C° 0 mm 3 mps 736 mmHg 52%
    10:00 -8°C° 0 mm 4 mps 736 mmHg 49%
    11:00 -8°C° 0 mm 4 mps 736 mmHg 46%
    12:00 -7°C° 0 mm 4 mps 736 mmHg 42%
    13:00 -5°C° 0 mm 4 mps 736 mmHg 39%
    14:00 -5°C° 0 mm 5 mps 736 mmHg 35%
    15:00 -5°C° 0 mm 4 mps 736 mmHg 36%
    16:00 -5°C° 0 mm 4 mps 736 mmHg 36%
    17:00 -5°C° 0 mm 4 mps 736 mmHg 37%
    18:00 -5°C° 0 mm 3 mps 736 mmHg 41%
    19:00 -6°C° 0 mm 3 mps 736 mmHg 44%
    20:00 -6°C° 0 mm 2 mps 736 mmHg 48%
    21:00 -6°C° 0 mm 2 mps 736 mmHg 49%
    22:00 -4°C° 0 mm 1 mps 736 mmHg 50%
    23:00 -4°C° 0 mm 1 mps 736 mmHg 51%

    24 February, Sunday

    Time Temperature Precipitation Wind Pressure Humidity
    00:00 -4°C° 0 mm 1 mps 736 mmHg 51%
    01:00 -4°C° 0 mm 1 mps 736 mmHg 52%
    02:00 -4°C° 0 mm 1 mps 735 mmHg 52%
    03:00 -6°C° 0 mm 1 mps 735 mmHg 52%
    04:00 -6°C° 0 mm 1 mps 735 mmHg 52%
    05:00 -6°C° 0 mm 1 mps 734 mmHg 52%
    06:00 -7°C° 0 mm 2 mps 734 mmHg 52%
    07:00 -7°C° 0 mm 2 mps 734 mmHg 51%
    08:00 -6°C° 0 mm 2 mps 734 mmHg 51%
    09:00 -5°C° 0 mm 2 mps 734 mmHg 47%
    10:00 -4°C° 0 mm 2 mps 734 mmHg 43%
    11:00 -4°C° 0 mm 3 mps 733 mmHg 39%
    12:00 -4°C° 0 mm 3 mps 733 mmHg 40%
    13:00 -2°C° 0 mm 3 mps 733 mmHg 40%
    14:00 -2°C° 0 mm 3 mps 732 mmHg 40%
    15:00 -1°C° 0 mm 2 mps 732 mmHg 42%
    16:00 -1°C° 0 mm 2 mps 732 mmHg 43%
    17:00 +1°C° 0 mm 1 mps 732 mmHg 45%
    18:00 0°C° 0 mm 1 mps 732 mmHg 48%
    19:00 0°C° 0 mm 1 mps 732 mmHg 50%
    20:00 0°C° 0 mm 1 mps 732 mmHg 53%
    21:00 -1°C° 0 mm 1 mps 732 mmHg 58%
    22:00 -1°C° 0 mm 1 mps 732 mmHg 63%
    23:00 -1°C° 0 mm 1 mps 732 mmHg 67%

    25 February, Monday

    Time Temperature Precipitation Wind Pressure Humidity
    00:00 -1°C° 0 mm 1 mps 732 mmHg 71%
    01:00 -2°C° 0 mm 1 mps 732 mmHg 75%
    02:00 -2°C° 0 mm 1 mps 731 mmHg 79%
    03:00 -2°C° 0 mm 1 mps 731 mmHg 81%
    04:00 -2°C° 0 mm 1 mps 731 mmHg 84%
    05:00 -2°C° 0 mm 1 mps 731 mmHg 86%
    06:00 -2°C° 0 mm 1 mps 731 mmHg 87%
    07:00 -2°C° 0 mm 1 mps 731 mmHg 88%
    08:00 -2°C° 0 mm 1 mps 731 mmHg 89%
    09:00 0°C° 0 mm 1 mps 731 mmHg 84%
    10:00 +1°C° 0 mm 1 mps 731 mmHg 80%
    11:00 +1°C° 0 mm 2 mps 731 mmHg 75%
    12:00 +1°C° 0 mm 2 mps 731 mmHg 74%
    13:00 +2°C° 0 mm 2 mps 730 mmHg 73%
    14:00 +2°C° 0 mm 2 mps 730 mmHg 72%
    15:00 +2°C° 0 mm 2 mps 730 mmHg 73%
    16:00 +2°C° 0 mm 2 mps 729 mmHg 73%
    17:00 +2°C° 0 mm 2 mps 729 mmHg 74%
    18:00 +1°C° 0 mm 2 mps 729 mmHg 78%
    19:00 -1°C° 0 mm 2 mps 729 mmHg 83%
    20:00 -1°C° 0 mm 2 mps 729 mmHg 87%
    21:00 -1°C° 0 mm 2 mps 729 mmHg 90%
    22:00 -1°C° 0 mm 2 mps 729 mmHg 93%
    23:00 -1°C° 0 mm 3 mps 729 mmHg 97%
    Show more